CST,Max TemperatureF,Mean TemperatureF,Min TemperatureF,Max Dew PointF,MeanDew PointF,Min DewpointF,Max Humidity, Mean Humidity, Min Humidity, Max Sea Level PressureIn, Mean Sea Level PressureIn, Min Sea Level PressureIn, Max VisibilityMiles, Mean VisibilityMiles, Min VisibilityMiles, Max Wind SpeedMPH, Mean Wind SpeedMPH, Max Gust SpeedMPH,PrecipitationIn, CloudCover, Events, WindDirDegrees
2013-2-1,5,0,-5,0,-9,-15,78,63,47,30.25,30.17,30.08,10,9,2,14,10,22,0.00,1,Snow,257
2013-2-2,17,9,1,1,-2,-6,85,65,38,30.11,30.06,29.98,10,9,2,7,2,,0.00,4,Snow,291
2013-2-3,19,11,3,5,2,-2,85,67,46,30.00,29.95,29.89,10,9,5,14,4,22,0.00,5,Snow,279
2013-2-4,19,11,1,5,-1,-6,85,57,36,29.99,29.95,29.88,10,10,3,8,2,,0.00,2,Snow,273
2013-2-5,28,14,1,21,11,-6,86,74,59,30.08,29.84,29.70,10,9,1,12,5,20,0.00,6,Snow,266
2013-2-6,28,12,-4,27,10,-9,93,79,59,30.21,30.13,30.07,10,6,1,8,2,,0.00,4,Snow,109
2013-2-7,30,27,24,28,25,21,93,89,80,30.13,30.04,29.98,5,2,1,15,5,22,0.01,8,Snow,20
2013-2-8,30,18,3,21,12,0,86,72,47,30.37,30.30,30.13,10,10,5,14,7,20,0.00,2,,354
2013-2-9,28,12,-4,23,13,-8,93,81,74,30.37,30.23,30.07,10,7,0,12,3,17,0.00,7,Fog-Snow,170
2013-2-10,41,32,23,37,30,19,100,89,80,30.06,29.68,29.31,10,4,0,15,6,23,0.33,7,Rain,107
2013-2-11,37,34,28,36,27,19,93,80,64,29.93,29.57,29.29,10,8,2,24,14,37,0.00,8,Rain-Snow,256
2013-2-12,30,24,19,19,18,14,93,71,55,30.02,29.93,29.80,10,9,3,16,10,24,0.00,5,Snow,250
2013-2-13,37,28,19,28,23,18,93,80,60,29.79,29.70,29.64,10,8,4,7,3,,0.00,6,,218
2013-2-14,33,28,23,32,27,10,100,84,59,30.02,29.73,29.55,10,6,1,17,6,22,0.06,8,Snow,327
2013-2-15,26,19,10,9,6,3,79,60,40,30.18,30.13,30.03,10,10,10,17,7,22,0.00,3,,284
2013-2-16,21,12,1,3,-2,-6,79,58,33,30.17,30.14,30.11,10,10,10,12,6,,0.00,2,,296
2013-2-17,23,8,-7,10,-2,-15,84,60,36,30.18,30.09,29.90,10,10,10,9,2,,0.00,1,,132
2013-2-18,42,32,21,32,24,10,93,70,57,29.89,29.60,29.43,10,9,2,16,8,28,0.00,3,Rain-Snow,164
2013-2-19,30,19,8,27,7,-4,86,66,48,30.13,29.79,29.47,10,5,1,22,16,30,0.00,6,Snow,287
2013-2-20,30,18,6,7,3,-2,73,55,37,30.39,30.28,30.14,10,10,10,13,9,20,0.00,0,,317
2013-2-21,26,14,3,21,12,0,86,77,67,30.45,30.33,30.13,10,9,2,15,4,23,0.00,6,Snow,47
2013-2-22,32,28,24,28,25,19,93,84,74,30.13,29.87,29.79,10,4,0,14,6,18,0.12,8,Snow,60
2013-2-23,32,28,24,25,22,18,86,74,60,29.89,29.82,29.77,10,9,3,14,8,16,0.00,7,Snow,260
2013-2-24,35,27,19,25,22,16,93,73,56,30.12,30.03,29.89,10,9,4,9,5,,0.00,6,,291
2013-2-25,37,24,12,27,18,9,93,79,52,30.15,30.11,30.06,10,6,0,5,0,,0.00,6,Fog,101
2013-2-26,37,26,15,28,23,12,93,78,56,30.07,29.89,29.73,10,8,2,22,8,32,0.00,4,,33
2013-2-27,35,34,32,30,28,23,93,81,69,29.81,29.72,29.67,10,8,2,17,11,25,0.00,8,Rain-Snow,5
2013-2-28,33,30,26,30,22,14,93,68,51,30.16,30.00,29.82,10,10,5,14,9,21,0.00,8,Snow,7